Location: Newark
(25.0000°N, 73.5000°E)
Time: 04:30:12
(UTC+00:00)

Altair - Pass Details

Date: 10 March 2021
Orbit: 1501 x 1683 km, 47.2° (Epoch: 12 April)

Event Time Altitude Azimuth Distance (km) Brightness Sun altitude
Rises 09:52:36 0° 214° (SW) 4,666 10.7 42.3°
Reaches altitude 10° 09:55:41 10° 211° (SSW) 3,669 10.4 41.7°
Maximum altitude 10:04:44 64° 132° (SE) 1,630 8.2 39.9°
Drops below altitude 10° 10:13:45 10° 53° (NE) 3,658 9.1 38.1°
Sets 10:16:49 0° 51° (NE) 4,651 9.6 37.5°
